Waarnemingen

Advertentie
Mijn weer
Lugo/Rozas, Spanje (8008): temperatuur & dauwpunt: 19.02.2018 02:00:00 - 25.02.2018 02:00:00 (CET)Lugo/Rozas, Spanje (8008): windsnelheid: 19.02.2018 02:00:00 - 25.02.2018 02:00:00 (CET)Lugo/Rozas, Spanje (8008): windrichting: 19.02.2018 02:00:00 - 25.02.2018 02:00:00 (CET)Lugo/Rozas, Spanje (8008): luchtdruk: 19.02.2018 02:00:00 - 25.02.2018 02:00:00 (CET)Lugo/Rozas, Spanje (8008): zicht: 19.02.2018 02:00:00 - 25.02.2018 02:00:00 (CET)Lugo/Rozas, Spanje (8008): neerslag: 19.02.2018 02:00:00 - 25.02.2018 02:00:00 (CET)
Datum & Tijd tt [°C] td [°C] ff [km/u] ff [kn] dd ppp [hPa] vv [km] rr [mm]
25.02.2018 02:00:00 -1,7 -2,7 2 1 O 1013,3 3,1 0,0
25.02.2018 01:00:00 -1,1 -2,4 4 2 ZO 1012,8 4,6 -
25.02.2018 00:00:00 -0,5 -1,8 4 2 ZZO 1012,4 4,6 0,0
24.02.2018 23:00:00 0,4 -0,9 2 1 ZZO 1011,8 3,2 0,0
24.02.2018 22:00:00 1,8 0,0 2 1 WZW 1010,9 - -
24.02.2018 21:00:00 2,9 1,4 2 1 NNO 1010,2 6 0,0
24.02.2018 20:00:00 4,4 1,9 4 2 ONO 1009,5 9 0,0
24.02.2018 19:00:00 5,9 2,5 8 4 NO 1008,7 13 -
24.02.2018 18:00:00 8,4 2,6 8 4 NO 1007,5 19 0,0
24.02.2018 17:00:00 10,4 2,0 13 7 ONO 1006,8 20 0,0
24.02.2018 16:00:00 11,9 2,1 5 3 N 1006,2 20 -
24.02.2018 15:00:00 11,3 -0,8 5 3 NNW 1006,4 20 0,0
24.02.2018 14:00:00 9,4 0,8 5 3 NNO 1007,6 18 0,0
24.02.2018 13:00:00 4,9 2,6 4 2 NW 1008,8 8 -
24.02.2018 12:00:00 1,2 0,6 4 2 NNW 1009,5 0,8 0,0
24.02.2018 11:00:00 -0,9 -1,2 2 1 N 1010,1 4,1 0,0
24.02.2018 10:00:00 -3,2 -3,6 2 1 ZO 1010,7 0,2 -
24.02.2018 09:00:00 -4,1 -4,8 0 0 N 1010,6 0,3 0,0
24.02.2018 08:00:00 -4,0 -4,8 2 1 ZZW 1010,0 1,6 0,0
24.02.2018 07:00:00 -4,0 -5,1 0 0 N 1009,5 2,0 -
24.02.2018 06:00:00 -3,2 -4,5 2 1 ZZW 1008,9 9 0,0
24.02.2018 05:00:00 -3,0 -4,4 2 1 ZZO 1008,7 11 0,0
24.02.2018 04:00:00 -2,7 -4,1 2 1 ZZO 1008,9 11 -
24.02.2018 03:00:00 -2,3 -3,6 2 1 ZW 1008,9 8 0,0
24.02.2018 02:00:00 -2,1 -3,4 2 1 Z 1008,8 8 0,0
24.02.2018 01:00:00 -1,4 -2,8 4 2 ZZO 1008,7 8 -
24.02.2018 00:00:00 -0,6 -2,3 2 1 ZZO 1008,8 8 0,0
23.02.2018 23:00:00 -0,1 -1,7 2 1 Z 1008,4 7 0,0
23.02.2018 22:00:00 1,4 -1,2 2 1 ZW 1007,9 10 -
23.02.2018 21:00:00 3,5 -0,2 2 1 ZO 1007,6 13 0,0
23.02.2018 20:00:00 5,2 0,9 5 3 ONO 1007,3 17 0,0
23.02.2018 19:00:00 7,5 0,9 8 4 NO 1006,4 20 -
23.02.2018 18:00:00 10,7 -0,5 4 2 NO 1005,5 20 0,0
23.02.2018 17:00:00 11,7 -0,5 4 2 O 1005,5 20 0,0
23.02.2018 16:00:00 12,2 -0,7 4 2 NNO 1005,8 20 -
23.02.2018 15:00:00 11,2 -0,3 5 3 NO 1006,7 20 0,0
23.02.2018 14:00:00 9,8 1,9 5 3 N 1007,6 19 0,0
23.02.2018 13:00:00 7,7 2,8 4 2 NW 1008,8 20 -
23.02.2018 12:00:00 4,7 1,9 4 2 NW 1009,9 12 0,0
23.02.2018 11:00:00 1,2 0,3 2 1 NNW 1010,8 4,2 0,0
23.02.2018 10:00:00 -1,5 -2,2 4 2 ONO 1011,5 0,2 -
23.02.2018 09:00:00 -2,9 -3,9 2 1 Z 1011,6 6 0,0
23.02.2018 08:00:00 -3,3 -4,4 2 1 NO 1011,6 - 0,0
23.02.2018 07:00:00 -2,8 -3,9 4 2 ZZO 1011,7 2,0 -
23.02.2018 06:00:00 -2,7 -3,8 2 1 OZO 1011,6 5 0,0
23.02.2018 05:00:00 -2,2 -3,5 4 2 ZZO 1011,2 6 0,0
23.02.2018 04:00:00 -2,0 -3,0 2 1 Z 1011,3 4,4 -
23.02.2018 03:00:00 -1,6 -2,6 2 1 Z 1011,6 3,8 0,0
23.02.2018 02:00:00 -1,3 -2,3 2 1 ZW 1012,1 3,9 0,0
23.02.2018 01:00:00 -1,0 -2,1 2 1 Z 1012,4 4,1 -
23.02.2018 00:00:00 0,2 -1,4 2 1 ZO 1012,6 4,2 0,0
22.02.2018 23:00:00 1,2 0,0 2 1 WNW 1012,5 4,1 0,0
22.02.2018 22:00:00 1,4 -0,1 4 2 ONO 1012,5 4,4 -
22.02.2018 21:00:00 2,4 0,9 9 5 ONO 1012,3 7 0,0
22.02.2018 20:00:00 3,6 1,5 4 2 NO 1012,4 8 0,0
22.02.2018 19:00:00 5,4 2,0 9 5 NO 1012,1 12 -
22.02.2018 18:00:00 7,3 2,4 11 6 NO 1011,5 16 0,0
22.02.2018 17:00:00 9,1 2,4 13 7 NO 1011,1 18 0,0
22.02.2018 16:00:00 10,8 2,1 9 5 NO 1011,1 20 -
22.02.2018 15:00:00 10,9 1,4 9 5 NO 1011,6 20 0,0
22.02.2018 14:00:00 9,8 0,9 8 4 NO 1012,5 20 0,0
22.02.2018 13:00:00 8,7 0,4 5 3 ONO 1013,4 25 -
22.02.2018 12:00:00 7,4 -0,1 5 3 ONO 1014,1 20 0,0
22.02.2018 11:00:00 5,5 -0,4 4 2 ONO 1014,9 20 0,0
22.02.2018 10:00:00 1,5 -0,9 2 1 WZW 1015,9 25 -
22.02.2018 09:00:00 -1,7 -2,7 2 1 Z 1016,5 19 0,0
22.02.2018 08:00:00 -2,5 -3,6 4 2 ZZO 1016,6 20 0,0
22.02.2018 07:00:00 -2,0 -3,1 2 1 Z 1016,6 20 -
22.02.2018 06:00:00 -1,7 -2,8 2 1 ZZO 1016,3 18 0,0
22.02.2018 05:00:00 -1,2 -2,5 2 1 ZZO 1016,1 19 0,0
22.02.2018 04:00:00 -0,6 -2,2 2 1 OZO 1016,1 20 -
22.02.2018 03:00:00 0,5 -1,3 2 1 NW 1016,3 20 0,0
22.02.2018 02:00:00 2,2 -0,2 8 4 ONO 1015,9 20 0,0
22.02.2018 01:00:00 3,0 0,7 4 2 NNO 1016,0 20 -
22.02.2018 00:00:00 1,8 0,8 4 2 W 1017,0 20 0,0
21.02.2018 23:00:00 3,2 1,2 2 1 W 1017,1 20 0,0
21.02.2018 22:00:00 3,9 2,1 4 2 NO 1017,3 20 -
21.02.2018 21:00:00 4,3 3,0 13 7 NO 1017,1 20 0,0
21.02.2018 20:00:00 4,9 2,4 4 2 NO 1017,5 20 0,0
21.02.2018 19:00:00 6,1 2,5 5 3 NO 1017,1 20 -
21.02.2018 18:00:00 7,0 2,7 13 7 NO 1016,8 20 0,0
21.02.2018 17:00:00 7,6 3,4 13 7 NO 1016,7 20 0,0
21.02.2018 16:00:00 8,5 3,3 11 6 NO 1016,9 20 -
21.02.2018 15:00:00 9,1 2,6 16 9 ONO 1017,3 20 0,0
21.02.2018 14:00:00 9,1 2,6 11 6 NO 1018,2 20 0,0
21.02.2018 13:00:00 8,7 1,4 21 11 ONO 1019,0 25 -
21.02.2018 12:00:00 8,1 1,7 13 7 NO 1019,3 20 0,0
21.02.2018 11:00:00 7,0 3,2 9 5 NO 1019,9 20 0,0
21.02.2018 10:00:00 5,5 2,3 8 4 NO 1020,2 25 -
21.02.2018 09:00:00 4,9 2,8 8 4 NO 1020,2 19 0,0
21.02.2018 08:00:00 4,6 2,8 9 5 NO 1020,1 18 0,0
21.02.2018 07:00:00 4,5 2,7 11 6 NO 1020,6 20 -
21.02.2018 06:00:00 4,5 3,0 13 7 NO 1020,9 17 0,0
21.02.2018 05:00:00 5,4 3,4 13 7 NO 1021,2 19 0,0
21.02.2018 04:00:00 6,0 4,3 11 6 NO 1021,9 19 -
21.02.2018 03:00:00 6,7 5,3 8 4 NO 1022,4 20 0,0
21.02.2018 02:00:00 6,9 5,7 5 3 NO 1022,8 20 0,0
21.02.2018 01:00:00 7,6 6,5 8 4 NO 1023,4 20 -
21.02.2018 00:00:00 7,8 6,4 2 1 N 1023,7 15 0,0
20.02.2018 23:00:00 7,8 6,7 2 1 NNO 1023,9 20 0,0
20.02.2018 22:00:00 7,4 6,5 4 2 NO 1024,3 20 -
20.02.2018 21:00:00 7,4 6,0 4 2 NO 1024,4 20 0,0
20.02.2018 20:00:00 8,0 6,5 11 6 NO 1024,5 18 0,0
20.02.2018 19:00:00 8,4 6,2 11 6 NO 1024,1 20 -
20.02.2018 18:00:00 9,1 6,0 15 8 NO 1024,1 20 0,0
20.02.2018 17:00:00 9,0 7,1 8 4 NO 1024,4 12 0,0
20.02.2018 16:00:00 10,0 6,9 8 4 NO 1024,3 20 -
20.02.2018 15:00:00 11,9 6,2 11 6 NO 1024,1 20 0,0
20.02.2018 14:00:00 10,7 5,2 15 8 NO 1024,6 20 0,0
20.02.2018 13:00:00 9,9 4,7 15 8 ONO 1025,2 25 -
20.02.2018 12:00:00 10,2 5,6 13 7 ONO 1025,3 20 0,0
20.02.2018 11:00:00 8,0 6,6 9 5 NO 1025,8 20 0,0
20.02.2018 10:00:00 7,0 6,3 5 3 ONO 1025,8 15 -
20.02.2018 09:00:00 6,1 5,2 4 2 O 1025,6 20 0,0
20.02.2018 08:00:00 6,2 5,6 2 1 NO 1025,2 20 0,0
20.02.2018 07:00:00 6,0 5,6 5 3 O 1025,1 20 -
20.02.2018 06:00:00 6,1 5,5 4 2 NNO 1025,4 17 0,0
20.02.2018 05:00:00 6,2 5,8 4 2 NNO 1025,6 19 0,0
20.02.2018 04:00:00 5,9 4,9 4 2 WZW 1025,9 9 -
20.02.2018 03:00:00 6,9 6,2 2 1 NNO 1025,8 14 0,0
20.02.2018 02:00:00 7,3 6,4 0 0 N 1025,9 16 0,0
20.02.2018 01:00:00 7,5 6,9 4 2 NNW 1025,7 14 -
20.02.2018 00:00:00 7,6 7,0 4 2 NO 1025,3 7 0,0
19.02.2018 23:00:00 7,6 7,2 2 1 NNO 1025,3 12 0,2
19.02.2018 22:00:00 7,7 7,1 5 3 NO 1025,4 4,7 -
19.02.2018 21:00:00 8,4 7,2 2 1 N 1025,1 19 0,0
19.02.2018 20:00:00 8,5 7,3 2 1 NO 1024,9 20 0,0
19.02.2018 19:00:00 8,8 7,4 5 3 ONO 1024,6 20 -
19.02.2018 18:00:00 9,4 7,7 8 4 NO 1024,3 20 0,0
19.02.2018 17:00:00 9,6 8,4 4 2 NO 1024,2 20 0,0
19.02.2018 16:00:00 9,2 8,6 5 3 NO 1024,5 19 -
19.02.2018 15:00:00 9,8 7,4 9 5 ONO 1024,5 17 0,0
19.02.2018 14:00:00 10,0 7,1 4 2 NW 1024,6 20 0,0
19.02.2018 13:00:00 9,5 7,1 2 1 ONO 1024,9 20 -
19.02.2018 12:00:00 7,8 6,9 2 1 NW 1025,6 19 0,0
19.02.2018 11:00:00 6,5 6,2 2 1 W 1025,7 1,5 0,0
19.02.2018 10:00:00 5,8 5,5 2 1 O 1025,8 0,2 -
19.02.2018 09:00:00 5,3 4,9 2 1 ZZO 1025,6 0,2 0,0
19.02.2018 08:00:00 5,4 5,0 2 1 ZO 1025,5 0,5 0,0
19.02.2018 07:00:00 5,5 5,4 2 1 ONO 1025,4 5 -
19.02.2018 06:00:00 5,4 5,3 2 1 ZW 1025,1 0,2 0,0
19.02.2018 05:00:00 5,3 5,0 4 2 ZW 1025,0 0,1 0,0
19.02.2018 04:00:00 5,2 4,5 2 1 Z 1025,3 0,3 -
19.02.2018 03:00:00 5,3 4,6 0 0 N 1025,5 9 0,0
19.02.2018 02:00:00 5,8 4,4 2 1 ZO 1025,7 4,5 0,0

tt = temperatuur
td = dauwpunt
ff = windsnelheid
dd = windrichting
ppp = luchtdruk
vv = zicht
rr = neerslag

Weerstations in de omgeving